MST,Max TemperatureF,Mean TemperatureF,Min TemperatureF,Max Dew PointF,MeanDew PointF,Min DewpointF,Max Humidity, Mean Humidity, Min Humidity, Max Sea Level PressureIn, Mean Sea Level PressureIn, Min Sea Level PressureIn, Max VisibilityMiles, Mean VisibilityMiles, Min VisibilityMiles, Max Wind SpeedMPH, Mean Wind SpeedMPH, Max Gust SpeedMPH,PrecipitationIn, CloudCover, Events, WindDirDegrees
2012-11-1,64,44,24,16,13,9,47,24,7,30.20,30.04,29.90,10,10,9,17,3,21,0.00,0,,232
2012-11-2,60,46,31,26,19,13,55,30,16,30.06,29.97,29.89,10,10,6,18,4,,0.00,0,,263
2012-11-3,61,44,26,28,21,18,65,36,17,30.19,30.08,30.00,10,10,8,9,3,,0.00,0,,203
2012-11-4,64,44,24,21,16,11,69,31,9,30.27,30.20,30.11,10,10,10,9,4,,0.00,0,,217
2012-11-5,64,48,32,22,17,11,49,29,11,30.32,30.22,30.14,10,10,7,13,4,,0.00,0,,217
2012-11-6,69,47,25,25,19,16,65,33,11,30.28,30.18,30.09,10,10,10,9,4,,0.00,0,,233
2012-11-7,66,46,27,22,18,14,58,29,10,30.22,30.07,29.94,10,10,10,16,5,23,0.00,0,,234
2012-11-8,61,44,27,41,22,16,95,36,13,30.09,29.91,29.81,10,10,10,18,7,28,0.12,2,Rain,209
2012-11-9,55,44,33,40,36,31,89,56,37,29.82,29.71,29.55,10,10,3,30,13,45,0.39,3,Rain,197
2012-11-10,35,26,16,37,28,10,93,82,27,30.01,29.86,29.52,10,6,0,28,16,39,0.03,7,Fog-Rain-Snow,257
2012-11-11,37,24,12,22,15,6,84,60,17,30.43,30.23,30.00,10,10,9,14,6,17,0.00,1,,242
2012-11-12,42,31,20,19,12,2,84,49,10,30.52,30.37,30.25,10,10,7,13,4,17,0.00,0,,334
2012-11-13,50,32,14,20,15,6,75,50,10,30.39,30.30,30.21,10,10,9,12,2,,0.00,0,,190
2012-11-14,55,35,15,19,14,8,78,44,8,30.37,30.24,30.13,10,10,10,8,2,,0.00,0,,195
2012-11-15,44,32,19,24,17,12,74,41,15,30.31,30.21,30.14,10,10,7,6,3,,0.00,0,,280
2012-11-16,57,44,32,24,21,18,61,33,13,30.15,30.09,29.99,10,10,10,15,4,,0.00,2,,235
2012-11-17,54,40,26,34,26,18,73,53,32,30.19,30.11,30.02,10,10,7,18,2,,0.00,1,,256
2012-11-18,52,39,26,36,29,24,89,53,23,30.24,30.08,30.00,10,10,10,17,5,18,0.00,2,,227
2012-11-19,55,38,21,32,21,14,89,48,16,30.32,30.25,30.15,10,10,9,6,2,,0.00,0,,144
2012-11-20,62,40,19,24,15,6,73,38,9,30.36,30.21,30.06,10,10,8,8,2,,0.00,0,,328
2012-11-21,66,50,33,29,21,11,50,36,21,30.19,30.07,29.97,10,10,9,9,2,,0.00,0,,192
2012-11-22,63,43,23,22,16,13,65,38,16,30.28,30.16,30.04,10,10,10,10,4,,0.00,0,,214
2012-11-23,57,39,21,20,16,10,60,36,16,30.42,30.33,30.26,10,10,7,10,2,,0.00,0,,215
2012-11-24,64,42,19,22,17,12,65,38,15,30.36,30.20,30.07,10,10,10,8,2,,0.00,0,,214
2012-11-25,59,40,21,25,18,11,69,39,15,30.12,30.00,29.88,10,10,9,17,3,22,0.00,0,,240
2012-11-26,57,41,25,23,16,12,65,36,11,30.23,30.10,29.94,10,10,5,8,3,,0.00,0,,186
2012-11-27,48,33,18,20,16,10,69,39,14,30.37,30.26,30.17,10,10,8,8,2,,0.00,0,,121
2012-11-28,57,39,21,26,21,11,69,41,21,30.32,30.20,30.08,10,10,7,13,2,,0.00,0,,244
2012-11-29,55,39,23,29,21,15,78,46,18,30.28,30.16,30.08,10,10,9,10,3,,0.00,0,,319
2012-11-30,55,42,28,36,21,14,95,46,14,30.22,30.13,30.01,10,10,9,16,4,21,0.00,0,,207